User: anonymous   Login
Location: Elstree
(51.6403°N, 0.2969°W)
Time: 11:29:45
(UTC+00:00)
Language:

SL-4 R/B - Orbit

View from above orbital plane
View from above orbital plane
View from above satellite
View from above satellite

Ground track
Ground track

The orbit data is extracted from the following two-line orbital elements,

1 39679U 14021B   21134.03812054  .00000580  00000-0  45654-4 0  9997
2 39679  51.6174  12.7518 0170501  11.9396 348.5539 15.06943784389180
Epoch (UTC): 14 May 2021 00:54:53
Eccentricity: 0.0170501
inclination: 51.6174°
perigee height: 427 km
apogee height: 663 km
right ascension of ascending node: 12.7518°
argument of perigee: 11.9396°
revolutions per day: 15.06943784
mean anomaly at epoch: 348.5539°
orbit number at epoch: 38918

The dashed part of the orbit path shows where the satellite is in the earth's shadow,  

DLR